When you browse on this site, cookies collect data to enhance your experience and personalize the content and advertising you see.
Visit our Privacy Policy to learn more. By continuing to use the site, you agree to this use of cookies and data.
  • Em Portugal
  • Lista de países
  • Para 7 dias
  • Temperatura da água
  • Mapa do tempo
  • Widgets de tempo
  • user-avatar
    Iniciar Sessão

    Previsão horária em Bicz

    Hoje, 21 Agosto, Quarta-feira

    Tempo Temperatura Precipitação Vento Pressão Humidade
    00:00 +17°C° 3 mm 5 m/s 756 mmHg 84%
    01:00 +17°C° 0 mm 4 m/s 756 mmHg 96%
    02:00 +16°C° 2.4 mm 5 m/s 756 mmHg 94%
    03:00 +16°C° 2.4 mm 5 m/s 756 mmHg 92%
    04:00 +16°C° 2.4 mm 6 m/s 756 mmHg 90%
    05:00 +15°C° 0.2 mm 5 m/s 757 mmHg 90%
    06:00 +15°C° 0.2 mm 5 m/s 758 mmHg 89%
    07:00 +15°C° 0.2 mm 5 m/s 758 mmHg 89%
    08:00 +17°C° 0.1 mm 4 m/s 759 mmHg 88%
    09:00 +17°C° 0.1 mm 4 m/s 759 mmHg 87%
    10:00 +17°C° 0.1 mm 3 m/s 760 mmHg 86%
    11:00 +17°C° 0 mm 3 m/s 760 mmHg 83%
    12:00 +18°C° 0 mm 3 m/s 760 mmHg 80%
    13:00 +18°C° 0 mm 2 m/s 760 mmHg 77%
    14:00 +19°C° 0 mm 2 m/s 760 mmHg 72%
    15:00 +20°C° 0 mm 2 m/s 760 mmHg 68%
    16:00 +21°C° 0 mm 2 m/s 760 mmHg 63%
    17:00 +20°C° 0 mm 2 m/s 760 mmHg 67%
    18:00 +20°C° 0 mm 1 m/s 760 mmHg 71%
    19:00 +19°C° 0 mm 1 m/s 760 mmHg 75%
    20:00 +19°C° 0 mm 1 m/s 761 mmHg 77%
    21:00 +18°C° 0 mm 1 m/s 761 mmHg 79%
    22:00 +18°C° 0 mm 1 m/s 761 mmHg 80%
    23:00 +16°C° 0 mm 1 m/s 761 mmHg 82%

    Amanhã, 22 Agosto, Quinta-feira

    Tempo Temperatura Precipitação Vento Pressão Humidade
    00:00 +16°C° 0 mm 1 m/s 762 mmHg 83%
    01:00 +15°C° 0 mm 1 m/s 762 mmHg 85%
    02:00 +15°C° 0 mm 1 m/s 762 mmHg 85%
    03:00 +15°C° 0 mm 1 m/s 761 mmHg 85%
    04:00 +14°C° 0 mm 1 m/s 761 mmHg 86%
    05:00 +15°C° 0 mm 1 m/s 762 mmHg 83%
    06:00 +16°C° 0 mm 1 m/s 762 mmHg 80%
    07:00 +18°C° 0 mm 1 m/s 762 mmHg 77%
    08:00 +19°C° 0 mm 2 m/s 762 mmHg 72%
    09:00 +20°C° 0 mm 2 m/s 762 mmHg 67%
    10:00 +21°C° 0 mm 2 m/s 762 mmHg 61%
    11:00 +23°C° 0 mm 2 m/s 762 mmHg 57%
    12:00 +24°C° 0 mm 2 m/s 762 mmHg 53%
    13:00 +25°C° 0 mm 2 m/s 761 mmHg 49%
    14:00 +25°C° 0 mm 2 m/s 761 mmHg 48%
    15:00 +25°C° 0 mm 2 m/s 761 mmHg 48%
    16:00 +25°C° 0 mm 2 m/s 761 mmHg 47%
    17:00 +24°C° 0 mm 2 m/s 761 mmHg 53%
    18:00 +21°C° 0 mm 2 m/s 760 mmHg 59%
    19:00 +20°C° 0 mm 3 m/s 760 mmHg 66%
    20:00 +19°C° 0 mm 2 m/s 761 mmHg 67%
    21:00 +18°C° 0 mm 2 m/s 761 mmHg 69%
    22:00 +18°C° 0 mm 2 m/s 761 mmHg 70%
    23:00 +17°C° 0 mm 2 m/s 761 mmHg 71%

    Depois de amanhã, 23 Agosto, Sexta-feira

    Tempo Temperatura Precipitação Vento Pressão Humidade
    00:00 +17°C° 0 mm 2 m/s 761 mmHg 72%
    01:00 +16°C° 0 mm 2 m/s 761 mmHg 73%
    02:00 +16°C° 0 mm 2 m/s 761 mmHg 74%
    03:00 +16°C° 0 mm 2 m/s 761 mmHg 75%
    04:00 +15°C° 0 mm 2 m/s 761 mmHg 76%
    05:00 +16°C° 0 mm 2 m/s 761 mmHg 73%
    06:00 +17°C° 0 mm 3 m/s 761 mmHg 71%
    07:00 +18°C° 0 mm 3 m/s 761 mmHg 69%
    08:00 +20°C° 0 mm 3 m/s 761 mmHg 63%
    09:00 +21°C° 0 mm 3 m/s 761 mmHg 57%
    10:00 +23°C° 0 mm 4 m/s 761 mmHg 51%
    11:00 +25°C° 0 mm 4 m/s 761 mmHg 48%
    12:00 +26°C° 0 mm 4 m/s 761 mmHg 45%
    13:00 +27°C° 0 mm 4 m/s 760 mmHg 41%
    14:00 +27°C° 0 mm 4 m/s 760 mmHg 42%
    15:00 +26°C° 0 mm 4 m/s 760 mmHg 42%
    16:00 +26°C° 0 mm 4 m/s 759 mmHg 42%
    17:00 +25°C° 0 mm 4 m/s 759 mmHg 47%
    18:00 +22°C° 0 mm 3 m/s 759 mmHg 53%
    19:00 +21°C° 0 mm 3 m/s 759 mmHg 58%
    20:00 +20°C° 0 mm 3 m/s 759 mmHg 60%
    21:00 +19°C° 0 mm 3 m/s 759 mmHg 61%
    22:00 +19°C° 0 mm 3 m/s 759 mmHg 63%
    23:00 +18°C° 0 mm 3 m/s 759 mmHg 66%

    24 Agosto, Sábado

    Tempo Temperatura Precipitação Vento Pressão Humidade
    00:00 +18°C° 0 mm 3 m/s 759 mmHg 69%
    01:00 +17°C° 0 mm 3 m/s 759 mmHg 72%
    02:00 +17°C° 0 mm 3 m/s 759 mmHg 74%
    03:00 +16°C° 0 mm 3 m/s 759 mmHg 76%
    04:00 +16°C° 0 mm 3 m/s 758 mmHg 78%
    05:00 +17°C° 0 mm 3 m/s 758 mmHg 75%
    06:00 +18°C° 0 mm 4 m/s 758 mmHg 72%
    07:00 +18°C° 0 mm 4 m/s 758 mmHg 69%
    08:00 +20°C° 0 mm 4 m/s 758 mmHg 64%
    09:00 +22°C° 0 mm 4 m/s 758 mmHg 59%
    10:00 +25°C° 0 mm 5 m/s 758 mmHg 54%
    11:00 +26°C° 0 mm 5 m/s 758 mmHg 51%
    12:00 +26°C° 0 mm 5 m/s 758 mmHg 49%
    13:00 +27°C° 0 mm 5 m/s 757 mmHg 46%
    14:00 +27°C° 0 mm 5 m/s 757 mmHg 47%
    15:00 +27°C° 0 mm 4 m/s 757 mmHg 47%
    16:00 +28°C° 0 mm 4 m/s 756 mmHg 48%
    17:00 +26°C° 0 mm 4 m/s 756 mmHg 53%
    18:00 +23°C° 0 mm 4 m/s 756 mmHg 58%
    19:00 +22°C° 0 mm 4 m/s 756 mmHg 63%
    20:00 +21°C° 0 mm 4 m/s 756 mmHg 63%
    21:00 +20°C° 0 mm 3 m/s 757 mmHg 64%
    22:00 +20°C° 0 mm 3 m/s 757 mmHg 65%
    23:00 +19°C° 0 mm 3 m/s 757 mmHg 67%

    25 Agosto, Domingo

    Tempo Temperatura Precipitação Vento Pressão Humidade
    00:00 +19°C° 0 mm 3 m/s 757 mmHg 69%
    01:00 +18°C° 0 mm 3 m/s 756 mmHg 72%
    02:00 +18°C° 0 mm 3 m/s 756 mmHg 73%
    03:00 +18°C° 0 mm 4 m/s 756 mmHg 74%
    04:00 +17°C° 0 mm 4 m/s 756 mmHg 75%
    05:00 +18°C° 0 mm 4 m/s 756 mmHg 72%
    06:00 +19°C° 0 mm 4 m/s 756 mmHg 69%
    07:00 +19°C° 0 mm 5 m/s 756 mmHg 67%
    08:00 +21°C° 0 mm 5 m/s 756 mmHg 63%
    09:00 +23°C° 0 mm 5 m/s 757 mmHg 59%
    10:00 +25°C° 0 mm 5 m/s 757 mmHg 56%
    11:00 +26°C° 0 mm 5 m/s 756 mmHg 54%
    12:00 +27°C° 0 mm 5 m/s 756 mmHg 53%
    13:00 +28°C° 0 mm 5 m/s 756 mmHg 51%
    14:00 +28°C° 0 mm 5 m/s 756 mmHg 52%
    15:00 +28°C° 0 mm 5 m/s 755 mmHg 52%
    16:00 +28°C° 0 mm 5 m/s 755 mmHg 52%
    17:00 +27°C° 0 mm 5 m/s 755 mmHg 56%
    18:00 +26°C° 0 mm 4 m/s 755 mmHg 60%
    19:00 +23°C° 0 mm 4 m/s 755 mmHg 65%
    20:00 +23°C° 0 mm 4 m/s 755 mmHg 65%
    21:00 +22°C° 0 mm 5 m/s 755 mmHg 65%
    22:00 +22°C° 0 mm 5 m/s 756 mmHg 66%
    23:00 +21°C° 0 mm 5 m/s 755 mmHg 68%

    26 Agosto, Segunda-feira

    Tempo Temperatura Precipitação Vento Pressão Humidade
    00:00 +21°C° 0 mm 4 m/s 755 mmHg 71%
    01:00 +20°C° 0 mm 4 m/s 755 mmHg 74%
    02:00 +20°C° 0 mm 4 m/s 755 mmHg 76%
    03:00 +19°C° 0 mm 4 m/s 754 mmHg 79%
    04:00 +19°C° 0 mm 3 m/s 754 mmHg 82%
    05:00 +20°C° 0 mm 4 m/s 754 mmHg 80%
    06:00 +20°C° 0 mm 4 m/s 754 mmHg 79%
    07:00 +21°C° 0 mm 4 m/s 754 mmHg 77%
    08:00 +23°C° 0 mm 4 m/s 754 mmHg 72%
    09:00 +25°C° 0 mm 4 m/s 754 mmHg 67%
    10:00 +27°C° 0 mm 4 m/s 754 mmHg 62%
    11:00 +28°C° 0 mm 4 m/s 753 mmHg 57%
    12:00 +30°C° 0 mm 4 m/s 753 mmHg 52%
    13:00 +32°C° 0 mm 4 m/s 753 mmHg 47%
    14:00 +31°C° 0 mm 3 m/s 752 mmHg 46%
    15:00 +33°C° 0 mm 3 m/s 752 mmHg 44%
    16:00 +33°C° 0 mm 3 m/s 752 mmHg 42%
    17:00 +31°C° 0 mm 3 m/s 752 mmHg 47%
    18:00 +29°C° 0 mm 3 m/s 751 mmHg 51%
    19:00 +28°C° 0 mm 2 m/s 751 mmHg 55%
    20:00 +27°C° 0.6 mm 2 m/s 751 mmHg 60%
    21:00 +26°C° 0.6 mm 2 m/s 752 mmHg 64%
    22:00 +25°C° 0.6 mm 2 m/s 752 mmHg 69%
    23:00 +24°C° 0.3 mm 2 m/s 752 mmHg 72%
    Mostrar mais